User: anonymous   Login
Location: *
(43.9900°N, 3.4811°E)
Time: 10:38:22
(UTC+00:00)
Language:

Cosmos 2082 Rocket - Orbit

View from above orbital plane
View from above orbital plane
View from above satellite
View from above satellite

Ground track
Ground track

The orbit data is extracted from the following two-line orbital elements,

1 20625U 90046B   19315.87038670 -.00000100 +00000-0 -27157-4 0  9991
2 20625 070.9982 106.9948 0015697 221.8805 138.1117 14.14651920521703
Epoch (UTC): 11 November 2019 20:53:21
Eccentricity: 0.0015697
inclination: 70.9982°
perigee height: 832 km
apogee height: 855 km
right ascension of ascending node: 106.9948°
argument of perigee: 221.8805°
revolutions per day: 14.14651920
mean anomaly at epoch: 138.1117°
orbit number at epoch: 52170

The dashed part of the orbit path shows where the satellite is in the earth's shadow,  

DLR